Mount Vernon, IL

7:43 PM CST on December 05, 2016 (GMT -0600)
Mount Vernon

Weather History for KMVN - May, 2014

Change the Weather History Date:

Sunday, May 18, 2014

  Actual Average Record
Temperature  
Mean Temperature 50 °F -  
Max Temperature 66 °F 73 °F 87 °F (1998)
Min Temperature 35 °F 53 °F 35 °F (2002)
Degree Days  
Heating Degree Days 14    
Moisture  
Dew Point 35 °F    
Average Humidity 65    
Maximum Humidity 93    
Minimum Humidity 35    
Precipitation  
Precipitation 0.00 in - - ()
Sea Level Pressure  
Sea Level Pressure 30.25 in    
Wind  
Wind Speed 2 mph (East)    
Max Wind Speed 10 mph    
Max Gust Speed -    
Visibility 9 miles    
Events      
Averages and records for this station are not official NWS values.
T = Trace of Precipitation, MM = Missing Value Source: NWS Daily Summary

Daily Weather History Graph

Daily Weather History Graph

Search for Another Location

Airport or City:

Trip Planner

Search our weather history database for the weather conditions in past years. The results will help you decide how hot, cold, wet, or windy it might be!

Date:

Astronomy

May. 18, 2014 Rise Set
Actual Time 5:41 AM CDT 8:02 PM CDT
Civil Twilight 5:11 AM CDT 8:32 PM CDT
Nautical Twilight 4:35 AM CDT 9:09 PM CDT
Astronomical Twilight 3:54 AM CDT 9:50 PM CDT
Moon 11:51 PM CDT (5/18) 9:29 AM CDT (5/18)
Length of Visible Light 15h 20m
Length of Day
14h 20m
Waning Gibbous, 81% of the Moon is Illuminated
May 18
Waning Gibbous
May 21
Last Quarter
May 28
New
Jun 5
First Quarter
Jun 12
Full

Hourly Weather History & Observations

Time (CDT) Temp. Windchill Dew Point Humidity Pressure Visibility Wind Dir Wind Speed Gust Speed Precip Events Conditions
12:15 AM 42.8 °F - 32.0 °F 66% 30.25 in 10.0 mi Calm Calm - N/A   Clear
12:35 AM 41.0 °F - 30.2 °F 65% 30.25 in 10.0 mi Calm Calm - N/A   Clear
12:55 AM 41.0 °F - 30.2 °F 65% 30.24 in 9.0 mi Calm Calm - N/A   Clear
1:15 AM 39.2 °F - 30.2 °F 70% 30.24 in 10.0 mi Calm Calm - N/A   Clear
1:35 AM 39.2 °F - 30.2 °F 70% 30.25 in 9.0 mi Calm Calm - N/A   Clear
1:55 AM 39.2 °F - 28.4 °F 65% 30.25 in 8.0 mi Calm Calm - N/A   Clear
2:15 AM 37.4 °F - 28.4 °F 70% 30.25 in 5.0 mi Calm Calm - N/A   Clear
2:35 AM 37.4 °F - 28.4 °F 70% 30.25 in 8.0 mi Calm Calm - N/A   Clear
2:55 AM 37.4 °F - 28.4 °F 70% 30.25 in 6.0 mi Calm Calm - N/A   Clear
3:15 AM 37.4 °F - 28.4 °F 70% 30.25 in 5.0 mi Calm Calm - N/A   Clear
3:35 AM 37.4 °F - 26.6 °F 65% 30.25 in 6.0 mi Calm Calm - N/A   Clear
3:55 AM 37.4 °F - 26.6 °F 65% 30.25 in 6.0 mi Calm Calm - N/A   Clear
4:15 AM 37.4 °F - 28.4 °F 70% 30.26 in 6.0 mi Calm Calm - N/A   Clear
4:35 AM 35.6 °F - 26.6 °F 70% 30.26 in 6.0 mi Calm Calm - N/A   Clear
4:55 AM 35.6 °F - 26.6 °F 70% 30.26 in 6.0 mi Calm Calm - N/A   Clear
5:15 AM 35.6 °F - 26.6 °F 70% 30.25 in 6.0 mi Calm Calm - N/A   Clear
5:35 AM 35.6 °F - 26.6 °F 70% 30.26 in 5.0 mi Calm Calm - N/A   Clear
5:55 AM 35.6 °F - 26.6 °F 70% 30.26 in 5.0 mi Calm Calm - N/A   Clear
6:15 AM 35.6 °F - 26.6 °F 70% 30.27 in 7.0 mi Calm Calm - N/A   Clear
6:35 AM 39.2 °F - 30.2 °F 70% 30.27 in 10.0 mi Calm Calm - N/A   Clear
6:55 AM 42.8 °F - 33.8 °F 70% 30.27 in 10.0 mi Calm Calm - N/A   Clear
7:15 AM 44.6 °F - 35.6 °F 71% 30.28 in 10.0 mi Calm Calm - N/A   Clear
7:35 AM 48.2 °F - 35.6 °F 62% 30.28 in 10.0 mi Calm Calm - N/A   Clear
7:55 AM 51.8 °F - 35.6 °F 54% 30.29 in 10.0 mi Calm Calm - N/A   Clear
8:15 AM 53.6 °F - 35.6 °F 51% 30.29 in 10.0 mi East 5.8 mph - N/A   Clear
8:35 AM 55.4 °F - 35.6 °F 47% 30.30 in 10.0 mi ESE 6.9 mph - N/A   Clear
8:55 AM 57.2 °F - 35.6 °F 44% 30.30 in 10.0 mi ESE 8.1 mph - N/A   Clear
9:15 AM 57.2 °F - 35.6 °F 44% 30.31 in 10.0 mi ESE 6.9 mph - N/A   Clear
9:35 AM - - - N/A% 30.30 in 10.0 mi SE 6.9 mph - N/A   Clear
9:55 AM - - - N/A% 30.30 in 10.0 mi East 5.8 mph - N/A   Clear
10:15 AM 59.0 °F - 35.6 °F 42% 30.31 in 10.0 mi SE 6.9 mph - N/A   Clear
10:35 AM 60.8 °F - 33.8 °F 36% 30.31 in 10.0 mi Calm Calm - N/A   Clear
10:55 AM 60.8 °F - 35.6 °F 39% 30.31 in 10.0 mi SE 8.1 mph - N/A   Clear
11:15 AM 60.8 °F - 35.6 °F 39% 30.31 in 10.0 mi ENE 6.9 mph - N/A   Clear
11:35 AM 62.6 °F - 35.6 °F 37% 30.31 in 10.0 mi East 10.4 mph - N/A   Clear
11:55 AM 39.2 °F 33.0 °F 37.4 °F 93% 30.30 in 10.0 mi NE 9.2 mph - N/A   Clear
12:15 PM 39.2 °F 34.2 °F 37.4 °F 93% 30.29 in 10.0 mi East 6.9 mph - N/A   Clear
12:35 PM 39.2 °F 35.9 °F 37.4 °F 93% 30.29 in 10.0 mi North 4.6 mph - N/A   Clear
12:55 PM 42.8 °F 40.1 °F 39.2 °F 87% 30.28 in 10.0 mi East 4.6 mph - N/A   Partly Cloudy
1:15 PM 42.8 °F 38.6 °F 39.2 °F 87% 30.28 in 10.0 mi ENE 6.9 mph - N/A   Partly Cloudy
1:35 PM 41.0 °F 35.8 °F 39.2 °F 93% 30.27 in 10.0 mi East 8.1 mph - N/A   Clear
1:55 PM 42.8 °F 37.0 °F 39.2 °F 87% 30.27 in 10.0 mi ENE 10.4 mph - N/A   Clear
2:15 PM 42.8 °F 39.3 °F 39.2 °F 87% 30.26 in 10.0 mi ESE 5.8 mph - N/A   Clear
2:35 PM 42.8 °F 38.6 °F 39.2 °F 87% 30.26 in 10.0 mi NNE 6.9 mph - N/A   Clear
2:55 PM 42.8 °F - 41.0 °F 93% 30.25 in 10.0 mi Calm Calm - N/A   Clear
3:15 PM 44.6 °F 41.4 °F 39.2 °F 81% 30.24 in 10.0 mi SSE 5.8 mph - N/A   Clear
3:35 PM 44.6 °F 43.1 °F 41.0 °F 87% 30.24 in 10.0 mi East 3.5 mph - N/A   Clear
3:55 PM 44.6 °F 41.4 °F 41.0 °F 87% 30.24 in 10.0 mi SE 5.8 mph - N/A   Clear
4:15 PM 44.6 °F 41.4 °F 39.2 °F 81% 30.24 in 10.0 mi SE 5.8 mph - N/A   Clear
4:35 PM 44.6 °F 42.2 °F 39.2 °F 81% 30.23 in 10.0 mi SSE 4.6 mph - N/A   Clear
4:55 PM 44.6 °F 41.4 °F 39.2 °F 81% 30.23 in 10.0 mi East 5.8 mph - N/A   Clear
5:15 PM 66.2 °F - 39.2 °F 37% 30.23 in 10.0 mi ESE 5.8 mph - N/A   Clear
5:35 PM 66.2 °F - 37.4 °F 35% 30.22 in 10.0 mi ENE 5.8 mph - N/A   Clear
5:55 PM 66.2 °F - 37.4 °F 35% 30.22 in 10.0 mi ESE 4.6 mph - N/A   Clear
6:15 PM 64.4 °F - 37.4 °F 37% 30.22 in 10.0 mi ENE 9.2 mph - N/A   Clear
6:35 PM 64.4 °F - 37.4 °F 37% 30.22 in 10.0 mi East 4.6 mph - N/A   Clear
6:55 PM 64.4 °F - 37.4 °F 37% 30.22 in 10.0 mi ESE 5.8 mph - N/A   Clear
7:15 PM 57.2 °F - 37.4 °F 48% 30.21 in 10.0 mi East 4.6 mph - N/A   Clear
7:35 PM 62.6 °F - 37.4 °F 39% 30.21 in 10.0 mi East 3.5 mph - N/A   Clear
7:55 PM 57.2 °F - 37.4 °F 48% 30.21 in 10.0 mi ENE 3.5 mph - N/A   Clear
8:15 PM 55.4 °F - 35.6 °F 47% 30.21 in 10.0 mi NE 3.5 mph - N/A   Clear
8:35 PM 51.8 °F - 35.6 °F 54% 30.21 in 9.0 mi Calm Calm - N/A   Clear
8:55 PM 50.0 °F - 37.4 °F 62% 30.21 in 10.0 mi Calm Calm - N/A   Clear
9:15 PM 48.2 °F - 35.6 °F 62% 30.21 in 10.0 mi Calm Calm - N/A   Clear
9:35 PM 48.2 °F - 37.4 °F 66% 30.21 in 10.0 mi NNE 3.5 mph - N/A   Clear
9:55 PM 46.4 °F - 37.4 °F 71% 30.21 in 10.0 mi Calm Calm - N/A   Clear
10:15 PM 46.4 °F - 35.6 °F 66% 30.21 in 10.0 mi Calm Calm - N/A   Clear
10:35 PM 46.4 °F - 35.6 °F 66% 30.21 in 10.0 mi Calm Calm - N/A   Clear
10:55 PM 44.6 °F - 35.6 °F 71% 30.21 in 10.0 mi Calm Calm - N/A   Clear
11:15 PM 46.4 °F - 37.4 °F 71% 30.21 in 10.0 mi Calm Calm - N/A   Clear
11:35 PM 44.6 °F - 35.6 °F 71% 30.21 in 10.0 mi Calm Calm - N/A   Clear
11:55 PM 44.6 °F - 35.6 °F 71% 30.21 in 10.0 mi Calm Calm - N/A   Clear